Location: Caltech
(34.1382°N, 118.1253°W)
Time: 10:02:18
(UTC-07:00)

ITAMSAT 1 - Visible Passes

Search period start: 30 August 2016 00:00
Search period end: 09 September 2016 00:00
Orbit: 783 x 798 km, 98.8° (Epoch: 29 August)

Date Brightness Start Highest point End Pass type
(mag) Time Alt. Az. Time Alt. Az. Time Alt. Az.
30 Aug 8.0 03:44:00 10° NNE 03:48:33 62° ENE 03:48:33 62° ENE visible
30 Aug 9.5 05:25:51 10° NW 05:28:00 13° WNW 05:29:17 12° WNW visible
31 Aug 9.2 03:15:05 10° NNE 03:18:47 31° ENE 03:18:47 31° ENE visible
31 Aug 8.8 04:54:55 10° NNW 04:59:01 24° WNW 04:59:31 24° WNW visible
01 Sep 10.1 02:46:56 10° NE 02:49:00 16° ENE 02:49:00 16° ENE visible
01 Sep 8.0 04:24:57 10° N 04:29:44 46° WNW 04:29:44 46° WNW visible
02 Sep 7.8 03:55:27 10° NNE 03:59:58 68° NNE 03:59:58 68° NNE visible
03 Sep 8.9 03:26:22 10° NNE 03:30:11 38° ENE 03:30:11 38° ENE visible
03 Sep 9.1 05:06:51 10° NNW 05:10:24 19° WNW 05:10:55 19° WNW visible
04 Sep 9.9 02:57:51 10° NE 03:00:25 20° ENE 03:00:25 20° ENE visible
04 Sep 8.3 04:36:38 10° N 04:41:09 36° WNW 04:41:09 36° WNW visible
05 Sep 7.8 04:06:58 10° N 04:11:22 60° NNW 04:11:22 60° NNW visible
06 Sep 8.6 03:37:43 10° NNE 03:41:35 45° NE 03:41:35 45° NE visible
06 Sep 9.3 05:18:57 10° NNW 05:21:46 15° WNW 05:22:19 15° WNW visible
07 Sep 9.6 03:08:56 10° NE 03:11:48 24° ENE 03:11:48 24° ENE visible
07 Sep 8.7 04:48:23 10° NNW 04:52:32 28° WNW 04:52:32 28° WNW visible
08 Sep 10.4 02:41:06 10° ENE 02:42:02 12° ENE 02:42:02 12° ENE visible
08 Sep 8.1 04:18:33 10° N 04:22:46 49° NW 04:22:46 49° NW visible
